HYLAS 1

Last updated on Dec. 14, 2019, 4:30 a.m. UTC

1 37237U 10065A   19347.87063166 -.00000218  00000-0  00000-0 0  9997
2 37237   0.0182 328.9737 0002224 289.9134  57.8179  1.00270826 33144
UTC
Height (km)
Latitude
Longitude
Inclination
Orbital Period
UTC large
Height (km)
Speed (km/s)
/
Latitude / Longitude
Inclination (degrees)
Orbital Period (minutes)
Azimuth
Elevation
Range (km)
Doppler Factor
iOS Compass Heading
iOS Angle

Next 30 passes for location: Hong Kong

Rise time Rise Azimuth (degrees) Set time Set Azimuth (degrees) Duration Max altitude (degrees)

No matching passes for this satellites